Location: Cajon Junction
(34.3117°N, 117.4748°W)
Time: 04:37:59
(UTC+00:00)

S3M - Pass Details

Date: 18 April 2024
Orbit: 949 x 1003 km, 83.0° (Epoch: 28 May)

Event Time Altitude Azimuth Distance (km) Brightness Sun altitude
Rises 11:58:22 0° 351° (N) 3,648 7.2 -15.6°
Reaches altitude 10° 12:00:52 10° 349° (N) 2,705 6.5 -15.1°
Maximum altitude 12:07:01 71° 267° (W) 1,025 3.9 -13.9°
Drops below altitude 10° 12:13:14 10° 184° (S) 2,726 6.1 -12.8°
Sets 12:15:46 0° 182° (S) 3,679 6.8 -12.3°
